QPF
0.00 0.00 0.00 0.00 0.00 0.00 0.00 0.00 0.00 0.00 0.00 0.00 0.00 0.00 0.00 0.00 0.00 0.01 0.01 0.01 0.03 0.01 0.00 0.00 0.00 0.00 0.00 0.00 0.07 0.10 0.12 0.11 0.05 0.03 0.00 0.00 0.00 0.00 0.00 0.00 0.00 0.00 0.00
0.00 0.00 0.00 0.00 0.00 0.00 0.00 0.00 0.00 0.00 0.00 0.00 0.00 0.00 0.00 0.00 0.00 0.00 0.01 0.02 0.03 0.02 0.00 0.00 0.00 0.00 0.00 0.00 0.00 0.01 0.04 0.04 0.02 0.00 0.00 0.00 0.00 0.00 0.00 0.00 0.00 0.00 0.00
0.00 0.00 0.00 0.00 0.00 0.00 0.00 0.00 0.00 0.00 0.00 0.00 0.00 0.00 0.00 0.00 0.01 0.01 0.01 0.04 0.02 0.01 0.00 0.00 0.00 0.00 0.00 0.00 0.00 0.02 0.03 0.03 0.01 0.00 0.00 0.00 0.00 0.00 0.00 0.00 0.00 0.00 0.00
0.00 0.00 0.00 0.00 0.00 0.00 0.00 0.00 0.00 0.00 0.00 0.00 0.00 0.00 0.00 0.00 0.00 0.04 0.05 0.03 0.04 0.03 0.03 0.01 0.00 0.00 0.00 0.00 0.00 0.02 0.04 0.05 0.02 0.00 0.00 0.00 0.00 0.00 0.00 0.00 0.00 0.00 0.00
0.00 0.00 0.00 0.00 0.00 0.00 0.00 0.00 0.00 0.00 0.00 0.00 0.00 0.00 0.00 0.00 0.00 0.02 0.05 0.07 0.08 0.07 0.05 0.03 0.00 0.00 0.00 0.01 0.08 0.11 0.08 0.06 0.05 0.02 0.00 0.00 0.00 0.00 0.00 0.00 0.00 0.00 0.00
0.00 0.00 0.00 0.00 0.00 0.00 0.00 0.00 0.00 0.00 0.00 0.00 0.00 0.00 0.00 0.00 0.00 0.00 0.00 0.01 0.03 0.02 0.04 0.01 0.01 0.05 0.07 0.08 0.12 0.10 0.10 0.06 0.02 0.00 0.00 0.00 0.00 0.00 0.00 0.00 0.00 0.00 0.00
0.00 0.00 0.00 0.00 0.00 0.00 0.00 0.00 0.00 0.00 0.00 0.00 0.00 0.00 0.00 0.00 0.00 0.00 0.00 0.00 0.00 0.03 0.08 0.11 0.11 0.11 0.06 0.10 0.13 0.09 0.04 0.03 0.00 0.00 0.00 0.00 0.00 0.00 0.00 0.00 0.00 0.00 0.00
0.00 0.00 0.00 0.00 0.00 0.00 0.00 0.00 0.00 0.00 0.00 0.00 0.00 0.00 0.00 0.00 0.00 0.00 0.00 0.00 0.00 0.03 0.07 0.11 0.11 0.11 0.07 0.05 0.03 0.02 0.01 0.00 0.00 0.00 0.00 0.00 0.00 0.00 0.00 0.00 0.00 0.00 0.00
0.00 0.00 0.00 0.00 0.00 0.00 0.00 0.00 0.00 0.00 0.00 0.00 0.00 0.00 0.00 0.00 0.00 0.00 0.00 0.00 0.00 0.00 0.04 0.08 0.07 0.07 0.06 0.01 0.00 0.00 0.00 0.00 0.00 0.00 0.00 0.00 0.00 0.00 0.00 0.00 0.00 0.00 0.00
0.00 0.00 0.00 0.00 0.00 0.00 0.00 0.00 0.00 0.00 0.00 0.00 0.00 0.00 0.00 0.00 0.00 0.00 0.00 0.00 0.00 0.01 0.05 0.10 0.12 0.04 0.01 0.00 0.00 0.00 0.00 0.00 0.00 0.00 0.00 0.00 0.00 0.00 0.00 0.00 0.00 0.00 0.00
0.00 0.00 0.00 0.00 0.00 0.00 0.00 0.00 0.00 0.00 0.00 0.00 0.00 0.00 0.00 0.00 0.00 0.00 0.02 0.04 0.01 0.01 0.03 0.04 0.08 0.04 0.00 0.00 0.00 0.00 0.00 0.00 0.00 0.00 0.00 0.00 0.00 0.00 0.00 0.00 0.00 0.00 0.00
0.00 0.00 0.00 0.00 0.00 0.00 0.00 0.00 0.00 0.00 0.00 0.00 0.00 0.00 0.00 0.00 0.00 0.00 0.01 0.05 0.08 0.06 0.04 0.02 0.01 0.01 0.04 0.01 0.00 0.00 0.00 0.00 0.00 0.00 0.00 0.00 0.00 0.00 0.00 0.00 0.00 0.00 0.00
0.01 0.01 0.00 0.00 0.00 0.00 0.00 0.00 0.00 0.00 0.00 0.00 0.00 0.00 0.00 0.00 0.00 0.00 0.00 0.00 0.03 0.09 0.11 0.05 0.02 0.00 0.02 0.04 0.02 0.04 0.05 0.01 0.01 0.00 0.00 0.01 0.00 0.00 0.00 0.00 0.00 0.00 0.00
0.01 0.00 0.00 0.00 0.00 0.00 0.00 0.00 0.00 0.00 0.00 0.00 0.00 0.00 0.00 0.00 0.00 0.00 0.00 0.00 0.00 0.03 0.10 0.11 0.08 0.05 0.02 0.05 0.04 0.05 0.07 0.04 0.02 0.00 0.00 0.01 0.01 0.00 0.00 0.00 0.00 0.00 0.00
0.00 0.00 0.00 0.00 0.00 0.00 0.00 0.00 0.00 0.00 0.00 0.01 0.00 0.00 0.00 0.00 0.00 0.00 0.00 0.00 0.00 0.00 0.04 0.13 0.10 0.10 0.04 0.04 0.02 0.03 0.05 0.05 0.03 0.02 0.01 0.01 0.00 0.00 0.00 0.00 0.00 0.00 0.00
0.00 0.00 0.00 0.00 0.00 0.00 0.00 0.00 0.00 0.00 0.00 0.00 0.00 0.00 0.00 0.00 0.00 0.00 0.00 0.00 0.00 0.00 0.00 0.01 0.02 0.04 0.04 0.03 0.02 0.02 0.02 0.03 0.02 0.03 0.01 0.00 0.00 0.00 0.00 0.00 0.00 0.00 0.00
0.00 0.00 0.00 0.00 0.00 0.00 0.00 0.00 0.00 0.00 0.00 0.00 0.00 0.00 0.00 0.00 0.00 0.00 0.00 0.00 0.00 0.00 0.00 0.00 0.00 0.00 0.01 0.02 0.01 0.01 0.01 0.00 0.00 0.01 0.00 0.00 0.00 0.00 0.00 0.00 0.00 0.00 0.00
0.00 0.00 0.00 0.00 0.00 0.00 0.00 0.00 0.00 0.00 0.00 0.00 0.00 0.00 0.00 0.00 0.00 0.00 0.00 0.00 0.00 0.00 0.00 0.00 0.00 0.00 0.00 0.00 0.00 0.00 0.00 0.00 0.00 0.00 0.00 0.00 0.00 0.00 0.00 0.00 0.00 0.00 0.00
0.00 0.00 0.00 0.00 0.00 0.00 0.00 0.00 0.00 0.00 0.00 0.00 0.01 0.00 0.00 0.00 0.00 0.00 0.00 0.00 0.00 0.00 0.00 0.00 0.00 0.00 0.00 0.00 0.00 0.00 0.00 0.00 0.00 0.00 0.00 0.00 0.00 0.00 0.00 0.00 0.00 0.00 0.00
0.00 0.00 0.00 0.00 0.00 0.00 0.00 0.00 0.00 0.00 0.00 0.00 0.01 0.00 0.00 0.00 0.00 0.00 0.00 0.00 0.00 0.00 0.00 0.00 0.00 0.00 0.00 0.00 0.00 0.00 0.00 0.00 0.00 0.00 0.00 0.00 0.00 0.00 0.00 0.00 0.00 0.00 0.00
0.00 0.00 0.00 0.00 0.00 0.00 0.00 0.00 0.00 0.00 0.00 0.00 0.00 0.00 0.00 0.00 0.00 0.00 0.00 0.00 0.00 0.00 0.00 0.00 0.00 0.00 0.00 0.00 0.00 0.00 0.00 0.00 0.00 0.00 0.00 0.00 0.00 0.00 0.00 0.00 0.00 0.00 0.00
0.00 0.00 0.00 0.00 0.00 0.00 0.00 0.00 0.00 0.00 0.00 0.00 0.00 0.00 0.00 0.00 0.00 0.00 0.00 0.00 0.00 0.00 0.00 0.00 0.00 0.01 0.01 0.00 0.00 0.00 0.00 0.00 0.00 0.00 0.00 0.00 0.00 0.00 0.00 0.00 0.00 0.00 0.01
0.00 0.00 0.00 0.00 0.00 0.00 0.00 0.00 0.00 0.00 0.00 0.00 0.00 0.00 0.00 0.00 0.00 0.00 0.00 0.00 0.00 0.00 0.00 0.00 0.00 0.00 0.00 0.00 0.00 0.00 0.00 0.00 0.00 0.00 0.00 0.00 0.00 0.00 0.00 0.00 0.00 0.00 0.00
0.00 0.00 0.00 0.00 0.00 0.00 0.00 0.00 0.00 0.00 0.00 0.00 0.00 0.00 0.00 0.00 0.00 0.00 0.00 0.00 0.00 0.00 0.00 0.00 0.00 0.00 0.00 0.00 0.00 0.00 0.00 0.00 0.00 0.00 0.00 0.00 0.00 0.00 0.00 0.00 0.00 0.00 0.00
0.00 0.00 0.00 0.00 0.00 0.00 0.00 0.00 0.00 0.00 0.00 0.00 0.00 0.00 0.00 0.00 0.00 0.00 0.00 0.00 0.00 0.00 0.00 0.00 0.00 0.00 0.00 0.00 0.00 0.00 0.00 0.00 0.00 0.00 0.00 0.00 0.00 0.01 0.00 0.00 0.00 0.00 0.00
0.00 0.00 0.00 0.00 0.00 0.00 0.00 0.00 0.00 0.00 0.00 0.00 0.00 0.00 0.00 0.00 0.00 0.00 0.00 0.00 0.00 0.00 0.00 0.00 0.00 0.00 0.00 0.00 0.00 0.00 0.00 0.01 0.00 0.00 0.00 0.00 0.00 0.01 0.00 0.00 0.00 0.00 0.00
MSLP
1006.73 1006.76 1006.77 1006.73 1006.64 1006.60 1006.78 1006.82 1006.86 1006.98 1007.10 1007.21 1007.19 1007.10 1006.84 1006.44 1006.05 1005.79 1005.55 1005.08 1005.00 1005.14 1005.23 1005.28 1005.32 1005.31 1005.66 1006.22 1006.96 1007.23 1007.36 1007.89 1008.13 1007.68 1006.85 1007.32 1006.89 1006.63 1006.07 1006.36 1006.89 1006.94 1007.04
1006.46 1006.51 1006.45 1006.30 1006.28 1006.29 1006.14 1006.01 1006.05 1006.25 1006.26 1006.38 1006.44 1006.48 1006.37 1006.05 1005.72 1005.39 1005.03 1004.76 1004.68 1004.63 1004.41 1004.55 1004.45 1004.58 1004.86 1005.26 1005.67 1005.82 1005.86 1006.33 1005.90 1006.02 1006.39 1006.92 1006.62 1006.40 1006.00 1006.27 1006.31 1006.36 1006.62
1006.96 1006.61 1006.28 1006.06 1005.93 1005.81 1005.65 1005.40 1005.33 1005.42 1005.49 1005.43 1005.52 1005.67 1005.69 1005.57 1005.34 1004.75 1004.34 1004.01 1003.95 1003.91 1003.88 1003.92 1003.64 1004.02 1004.07 1004.50 1004.86 1005.28 1005.55 1005.23 1004.98 1005.15 1006.14 1006.42 1006.27 1006.32 1006.28 1006.08 1006.16 1006.41 1006.28
1007.19 1007.09 1006.90 1006.64 1006.41 1006.11 1005.58 1005.17 1004.87 1004.67 1004.67 1004.57 1004.60 1004.66 1004.76 1004.79 1004.73 1004.38 1003.69 1003.47 1003.39 1003.17 1003.19 1003.33 1003.49 1003.79 1003.75 1003.90 1004.17 1004.50 1004.68 1005.02 1005.17 1005.36 1005.61 1005.94 1006.00 1006.40 1006.32 1006.55 1006.71 1006.65 1006.24
1006.82 1006.68 1006.50 1006.27 1006.06 1005.80 1005.54 1005.22 1004.82 1004.54 1004.35 1004.14 1004.07 1003.97 1003.95 1004.06 1004.04 1003.96 1003.69 1003.15 1002.72 1002.63 1002.72 1002.56 1002.63 1002.94 1003.08 1003.26 1003.36 1003.84 1004.30 1004.44 1005.09 1005.53 1005.74 1005.88 1006.18 1006.56 1006.49 1006.74 1006.90 1006.84 1006.45
1006.35 1006.09 1005.75 1005.55 1005.38 1005.21 1004.98 1004.77 1004.40 1004.11 1003.98 1003.91 1003.79 1003.66 1003.55 1003.38 1003.41 1003.28 1003.29 1003.24 1002.63 1002.21 1001.92 1001.71 1001.73 1001.81 1002.21 1002.24 1002.31 1002.87 1003.14 1004.03 1004.63 1005.11 1005.73 1005.81 1006.36 1006.59 1006.57 1006.82 1006.99 1007.08 1006.96
1005.89 1005.45 1005.09 1004.79 1004.54 1004.29 1004.10 1003.83 1003.56 1003.51 1003.46 1003.38 1003.25 1003.21 1002.99 1002.76 1002.85 1003.01 1002.80 1002.71 1002.62 1002.14 1001.54 1001.32 1001.07 1000.71 1001.10 1001.41 1002.02 1002.19 1002.44 1003.06 1003.15 1003.97 1005.10 1005.48 1005.94 1005.96 1006.09 1006.63 1006.81 1007.05 1007.19
1005.65 1005.12 1004.70 1004.34 1003.85 1003.38 1003.03 1002.79 1002.56 1002.55 1002.42 1002.42 1002.38 1002.36 1002.23 1002.00 1001.97 1002.20 1002.17 1002.08 1001.73 1001.30 1000.87 1000.86 999.93 1000.01 1000.51 1000.92 1001.13 1001.79 1002.55 1002.98 1003.24 1003.50 1003.54 1004.09 1004.40 1005.09 1005.43 1005.93 1006.59 1006.73 1006.63
1005.26 1004.71 1004.21 1003.73 1003.07 1002.55 1001.70 1001.32 1001.30 1001.35 1001.48 1001.52 1001.42 1001.57 1001.50 1001.32 1001.03 1001.04 1001.20 1001.16 1000.85 1000.38 1000.12 999.94 999.37 1000.27 1000.46 1000.22 1000.60 1001.55 1002.16 1002.56 1002.51 1002.60 1003.12 1003.55 1003.97 1004.74 1005.60 1006.19 1006.36 1006.82 1007.05
1004.37 1003.74 1003.37 1003.17 1002.38 1001.56 1001.01 1000.59 1000.28 1000.12 1000.29 1000.40 1000.46 1000.56 1000.61 1000.60 1000.33 1000.30 1000.39 1000.11 1000.10 999.73 999.36 999.59 999.94 1000.05 999.93 999.83 1000.20 1001.06 1001.95 1002.68 1002.55 1003.04 1003.48 1004.19 1004.47 1004.75 1005.26 1005.31 1005.90 1006.50 1006.74
1003.66 1003.05 1002.76 1002.21 1001.80 1001.26 1000.63 1000.25 999.86 999.30 999.26 999.46 999.71 999.79 999.75 999.75 999.58 999.57 999.97 999.53 999.23 998.70 998.58 999.10 998.86 999.85 999.40 999.75 999.99 1000.92 1001.20 1001.90 1002.96 1003.34 1003.45 1003.92 1004.45 1004.71 1004.57 1004.66 1005.13 1005.69 1006.05
1003.19 1002.52 1001.93 1001.42 1000.86 1000.38 999.80 999.05 998.67 998.58 998.46 998.46 998.68 998.65 998.72 998.69 998.83 998.92 999.32 999.28 998.79 999.13 999.01 998.69 999.41 999.32 999.75 999.41 999.99 1000.27 1001.07 1001.58 1002.63 1003.38 1003.44 1003.66 1003.58 1003.57 1004.02 1004.15 1004.47 1004.77 1004.80
1002.49 1001.67 1001.10 1000.60 1000.07 999.70 999.27 998.74 998.10 997.87 997.82 997.66 997.72 997.68 997.68 997.83 997.87 998.11 998.50 998.68 998.94 998.91 998.68 999.09 998.39 998.29 999.34 1000.05 1000.04 1000.75 1001.22 1001.60 1002.50 1002.90 1003.06 1003.05 1003.07 1003.27 1003.89 1004.25 1004.39 1004.09 1004.37
1001.63 1000.81 1000.15 999.67 999.12 998.79 998.34 997.81 997.40 997.30 997.16 997.05 996.90 996.64 996.64 996.84 997.16 997.41 997.84 997.99 998.34 998.77 998.85 999.19 999.00 998.28 998.38 999.31 1000.23 1000.55 1000.94 1001.56 1001.89 1002.20 1002.56 1002.59 1002.98 1003.65 1003.93 1004.10 1004.33 1004.12 1004.44
1000.74 999.91 999.31 998.82 998.31 997.73 997.46 997.03 996.55 996.14 996.18 996.05 995.92 995.99 996.04 996.25 996.75 996.91 997.28 997.59 997.62 997.62 998.22 998.37 998.66 998.90 999.11 999.14 999.55 999.98 1000.51 1001.30 1001.79 1002.03 1002.32 1002.56 1002.94 1003.38 1003.49 1003.76 1003.88 1004.13 1004.45
999.69 999.07 998.47 997.88 997.30 996.89 996.57 996.19 995.97 995.84 995.72 995.68 995.75 995.80 995.66 995.90 996.09 996.46 996.93 997.03 997.00 997.23 997.70 997.74 997.82 998.01 998.24 998.80 999.43 1000.07 1000.69 1000.99 1001.45 1002.00 1002.18 1002.22 1002.45 1002.80 1002.90 1003.25 1003.45 1003.84 1003.98
999.34 998.42 997.67 997.12 996.50 995.93 995.57 995.22 994.92 994.83 994.82 994.95 995.15 995.35 995.51 995.64 996.01 996.51 996.66 996.65 996.76 996.75 996.92 997.02 997.25 997.43 997.66 998.08 998.70 999.52 999.94 1000.22 1000.76 1001.35 1001.37 1001.62 1001.83 1002.10 1002.68 1002.77 1002.93 1003.32 1003.45
998.35 997.45 996.73 996.05 995.60 995.08 994.76 994.40 994.15 994.06 994.05 993.89 994.11 994.42 994.76 995.06 995.49 996.02 996.28 996.46 996.76 996.80 996.83 996.85 996.84 996.94 997.11 997.64 998.18 998.76 999.12 999.55 1000.13 1000.39 1000.81 1001.01 1001.15 1001.46 1001.87 1002.03 1002.35 1002.58 1002.80
997.22 996.24 995.51 994.89 994.41 994.08 993.81 993.53 993.36 993.21 993.18 993.26 993.44 993.55 993.81 994.38 994.87 995.56 996.10 996.35 996.32 996.40 996.46 996.54 996.57 996.61 996.74 997.22 997.56 998.02 998.38 998.84 999.27 999.81 1000.11 1000.29 1000.43 1000.76 1001.06 1001.34 1001.67 1002.11 1002.17
996.08 994.95 994.24 993.46 992.96 992.67 992.51 992.38 992.24 992.23 992.28 992.44 992.54 992.78 993.10 993.83 994.38 994.89 995.23 995.48 995.74 995.87 996.10 996.27 996.35 996.30 996.21 996.55 997.07 997.47 997.93 998.34 998.91 999.10 999.34 999.53 999.70 999.92 1000.30 1000.73 1001.20 1001.67 1001.93
995.46 993.86 992.82 992.16 991.71 991.29 991.20 991.07 991.02 991.13 991.30 991.52 991.76 992.07 992.42 993.01 993.54 993.85 994.08 994.53 994.98 995.33 995.63 995.84 996.00 996.13 996.12 996.02 996.27 996.83 997.33 997.75 998.18 998.39 998.59 998.82 999.06 999.52 999.74 1000.21 1000.71 1001.15 1001.25
994.91 993.28 991.60 990.91 990.49 990.22 990.19 989.89 989.88 990.13 990.53 990.93 991.27 991.71 992.10 992.56 992.76 993.07 993.46 993.89 994.36 994.78 995.13 995.42 995.59 995.94 995.76 995.53 995.78 996.42 996.84 997.16 997.34 997.48 997.82 998.12 998.42 998.89 999.40 1000.08 1000.50 1000.71 1000.50
994.36 992.80 991.68 990.93 990.20 989.81 989.58 989.33 988.95 989.57 990.06 990.46 990.79 991.03 991.56 991.79 992.04 992.41 993.04 993.45 993.94 994.33 994.60 994.99 995.34 995.65 995.24 995.02 995.02 995.56 996.23 996.53 996.51 996.66 997.22 997.77 998.22 998.72 999.16 999.63 999.91 1000.17 1000.63
994.66 993.47 992.45 991.60 990.78 990.08 989.60 989.62 989.59 989.69 989.85 990.16 990.46 990.71 990.99 991.28 991.70 991.83 992.28 992.73 993.24 993.62 993.85 994.13 994.68 994.91 995.05 995.03 995.01 995.21 995.35 995.64 995.91 996.28 996.75 997.54 998.02 998.41 998.76 999.25 999.67 1000.20 1000.46
995.45 994.40 993.40 992.60 991.89 991.07 990.35 989.84 989.87 989.86 989.90 990.03 990.21 990.47 990.80 991.11 991.42 991.51 991.74 992.13 992.48 992.93 993.28 993.55 993.94 994.30 994.71 994.81 994.95 994.78 994.69 995.13 995.47 995.82 996.38 996.84 997.41 998.04 998.60 999.05 999.63 1000.04 1000.28
996.41 995.46 994.61 993.76 992.92 992.22 991.61 990.94 990.48 990.26 990.06 990.04 990.14 990.34 990.66 991.03 991.24 991.41 991.69 991.93 992.21 992.58 992.88 993.27 993.61 993.91 994.13 994.38 994.48 994.32 994.59 994.93 994.97 995.51 996.00 996.63 997.15 997.87 998.28 998.88 999.21 999.83 1000.49
Thickness
5642 5642 5640 5640 5638 5637 5634 5631 5625 5620 5616 5613 5614 5616 5618 5622 5626 5629 5631 5636 5639 5640 5642 5644 5648 5651 5652 5650 5644 5643 5643 5636 5631 5634 5654 5655 5665 5668 5676 5676 5671 5675 5676
5632 5628 5623 5622 5619 5617 5619 5618 5613 5609 5605 5601 5599 5599 5602 5606 5611 5615 5619 5622 5625 5628 5635 5636 5641 5642 5643 5643 5643 5646 5645 5642 5648 5650 5650 5651 5659 5661 5669 5668 5669 5671 5669
5605 5608 5608 5606 5602 5599 5598 5598 5597 5594 5592 5591 5589 5585 5585 5590 5595 5603 5608 5612 5616 5619 5622 5626 5633 5633 5637 5637 5636 5640 5637 5641 5647 5652 5646 5647 5652 5653 5658 5663 5663 5663 5665
5589 5585 5583 5582 5581 5580 5580 5581 5580 5578 5575 5578 5577 5577 5575 5576 5581 5587 5595 5601 5604 5610 5612 5616 5618 5621 5624 5625 5629 5635 5636 5633 5635 5639 5641 5641 5643 5643 5646 5645 5646 5653 5659
5577 5573 5570 5568 5566 5564 5563 5561 5561 5560 5559 5558 5560 5563 5563 5565 5568 5571 5577 5587 5594 5599 5600 5607 5609 5611 5614 5616 5621 5625 5625 5627 5624 5624 5625 5628 5628 5627 5630 5634 5636 5640 5647
5562 5561 5560 5557 5553 5548 5547 5545 5544 5542 5539 5539 5541 5544 5548 5552 5555 5558 5561 5569 5579 5587 5594 5600 5603 5608 5609 5613 5617 5617 5622 5617 5614 5614 5613 5618 5617 5618 5621 5623 5627 5627 5627
5551 5552 5551 5547 5542 5539 5535 5531 5526 5521 5520 5520 5523 5527 5534 5539 5542 5544 5549 5557 5565 5573 5582 5589 5597 5606 5607 5611 5608 5610 5613 5612 5616 5613 5607 5607 5608 5611 5613 5614 5617 5617 5616
5536 5536 5533 5531 5530 5528 5525 5520 5515 5506 5505 5506 5509 5514 5520 5530 5534 5536 5541 5547 5558 5567 5576 5578 5594 5598 5601 5602 5605 5605 5604 5605 5606 5609 5614 5612 5614 5610 5611 5609 5606 5607 5610
5524 5520 5517 5514 5513 5513 5516 5513 5505 5496 5494 5495 5499 5504 5510 5520 5527 5533 5537 5544 5553 5564 5570 5578 5589 5587 5589 5594 5601 5600 5601 5602 5606 5611 5610 5609 5610 5604 5598 5594 5597 5596 5598
5513 5510 5505 5500 5500 5504 5504 5503 5499 5494 5492 5491 5495 5501 5506 5512 5519 5526 5533 5544 5548 5557 5567 5572 5575 5580 5585 5593 5598 5597 5596 5592 5600 5600 5600 5597 5596 5597 5593 5596 5593 5593 5592
5502 5498 5492 5492 5489 5489 5491 5492 5493 5495 5493 5492 5494 5499 5504 5509 5516 5520 5526 5541 5547 5556 5562 5568 5577 5572 5581 5586 5592 5591 5594 5592 5587 5590 5595 5593 5590 5590 5594 5595 5596 5593 5590
5495 5493 5490 5489 5488 5487 5487 5493 5495 5494 5494 5495 5496 5501 5505 5508 5512 5516 5519 5527 5538 5546 5552 5559 5564 5569 5572 5582 5584 5587 5585 5588 5585 5581 5588 5590 5595 5598 5595 5596 5595 5593 5596
5491 5491 5490 5488 5487 5484 5481 5484 5489 5491 5492 5495 5497 5502 5506 5508 5512 5512 5514 5521 5526 5538 5548 5550 5562 5572 5569 5571 5577 5575 5577 5584 5580 5582 5588 5591 5593 5595 5591 5589 5589 5594 5593
5486 5488 5487 5486 5484 5481 5480 5480 5483 5484 5486 5489 5495 5502 5507 5509 5508 5511 5514 5518 5522 5527 5534 5542 5551 5565 5573 5573 5570 5572 5578 5579 5579 5586 5586 5592 5590 5587 5587 5586 5585 5589 5589
5486 5485 5482 5479 5479 5477 5473 5474 5478 5482 5483 5488 5493 5498 5503 5506 5505 5508 5511 5517 5526 5529 5531 5539 5546 5554 5560 5568 5570 5575 5573 5576 5574 5579 5583 5584 5586 5585 5585 5584 5585 5584 5586
5484 5479 5478 5473 5470 5467 5467 5468 5469 5469 5472 5474 5478 5486 5496 5496 5498 5500 5504 5509 5519 5524 5531 5540 5550 5556 5562 5565 5567 5566 5565 5570 5572 5573 5580 5584 5587 5586 5586 5585 5585 5583 5584
5476 5476 5472 5465 5462 5462 5463 5465 5466 5467 5467 5469 5470 5473 5479 5489 5488 5491 5499 5506 5514 5524 5533 5540 5549 5556 5562 5565 5566 5562 5566 5572 5572 5573 5581 5585 5587 5588 5582 5585 5585 5583 5583
5476 5474 5468 5464 5461 5461 5460 5460 5460 5459 5458 5465 5467 5469 5472 5477 5479 5485 5490 5498 5507 5516 5524 5534 5545 5554 5561 5563 5563 5564 5570 5571 5570 5575 5577 5583 5588 5588 5588 5588 5586 5586 5586
5480 5476 5472 5468 5465 5461 5457 5455 5454 5455 5456 5457 5460 5465 5468 5472 5474 5474 5479 5488 5502 5514 5522 5532 5539 5547 5556 5559 5564 5568 5573 5574 5574 5574 5578 5585 5588 5588 5589 5588 5586 5583 5586
5486 5484 5480 5477 5472 5465 5458 5454 5452 5450 5449 5451 5457 5462 5467 5466 5471 5475 5481 5492 5500 5510 5518 5526 5533 5542 5552 5559 5561 5565 5570 5571 5572 5579 5581 5586 5589 5591 5590 5588 5585 5582 5582
5489 5491 5487 5484 5480 5473 5465 5458 5452 5446 5444 5445 5451 5457 5461 5469 5473 5478 5486 5492 5498 5504 5512 5518 5528 5536 5545 5556 5562 5565 5568 5571 5574 5579 5584 5586 5589 5589 5588 5585 5585 5582 5581
5494 5497 5504 5499 5493 5485 5474 5467 5457 5449 5444 5443 5449 5454 5457 5467 5474 5480 5485 5491 5496 5500 5505 5512 5522 5529 5540 5552 5558 5561 5565 5572 5577 5584 5586 5587 5589 5587 5587 5585 5582 5581 5583
5503 5508 5507 5506 5504 5494 5486 5478 5472 5457 5450 5448 5453 5462 5466 5472 5478 5484 5486 5491 5493 5497 5501 5508 5515 5524 5537 5548 5558 5562 5566 5572 5579 5585 5585 5584 5583 5584 5587 5585 5583 5580 5579
5506 5505 5506 5504 5503 5499 5494 5481 5474 5466 5462 5461 5465 5471 5474 5477 5481 5490 5493 5494 5496 5499 5506 5511 5517 5525 5533 5543 5552 5560 5569 5575 5580 5583 5583 5580 5580 5583 5585 5582 5577 5576 5579
5503 5502 5503 5501 5497 5496 5495 5494 5485 5481 5478 5477 5478 5479 5479 5481 5485 5493 5498 5501 5503 5504 5508 5515 5520 5526 5531 5540 5548 5559 5570 5574 5579 5579 5582 5584 5584 5583 5581 5577 5576 5577 5580
5501 5500 5499 5497 5496 5494 5491 5492 5493 5491 5488 5486 5485 5484 5484 5484 5488 5493 5499 5504 5507 5509 5511 5515 5521 5527 5534 5540 5547 5554 5562 5569 5575 5580 5584 5582 5583 5580 5578 5576 5579 5580 5579